Showing default

IRIDIUM 105, 41921

Orbit data source: Space-Track

IRIDIUM 105, 41921 is a payload satellite owned by Iridium (US) in LEO that was launched on Sat, 14 Jan 2017 UTC via an FALCON 9 launch vehicle from the Air Force Western Test Range (AFWTR). Payload-class satellites include a variety of spacecraft equipped with specific instruments for various scientific and technological missions. These include communications satellites like Starlink; space stations such as the ISS; scientific satellites like the Hubble; Earth observation satellites from companies like Planet Labs, Umbra, and HawkEye 360; GPS; miniature CubeSats for education and research; and military/defense satellites.

Loading next visibility...
Identifier
41921, 2017-003E
Orbit
LEO
Last TLE update
15 hours ago
Origin
Manufacturer
OATK SSG Gilbert
Mission
Operational Commercial Communications
Bus & Motor
ELITEBUS, Unknown motor
Mass
860 kg wet, 700 kg dry
Launch date (UTC)
2017-01-14 (8 years ago)
Launch vehicle
FALCON 9
Launch site
Air Force Western Test Range (AFWTR)
Object type
Payload
Rocket body
Debris
Shape & HBR
Trap Box + 2 Pan, 9.4 m
Radar Cross Section
14.423 m², Large (>1 m²)

Expand to show TLE details & history

TLE from 15 hours ago
0 IRIDIUM 105
1 41921U 17003E   25182.58089712  .00000171  00000-0  53867-4 0  9998
2 41921  86.3984 203.3444 0002504  87.9888 272.1594 14.34219945444886
Epoch: 2025-07-01T13:56Z
TLE epoch observation values (Epoch: 2025-07-01T13:56:29.511Z)
Latitude
-0.00006°
Longitude
74.34713°
Altitude
780.644 km
Speed
7.464 km/s
True Right ascension
13h 33m 22s
True Declination
0° 00' 00"
Sunlit
Object was in daylight at epoch
Visualization orbit readout
Latitude
52.79284°
Longitude
78.8106°
Altitude
784.849 km
Speed
7.467 km/s
Apparent Right ascension
08h 51m 57s
Apparent Declination
23° 39' 20"
Sunlit
Object is in daylight
Visualization observer readout
Local Sidereal Time
16:56:56
Azimuth
308.035° NW
Elevation
-6.139°
Doppler factor
1
Orbital elements
Apogee altitude
776.415 km
Perigee altitude
772.833 km
Semi-major axis
7,152.761 km
Eccentricity
0.00025
Inclination
86.3984°
RAAN
203.3444°
Arg. of periapsis
87.9888°
True anomaly
Unknown
Mean anomaly
272.1594°
Eccentric anomaly
Unknown
Mean motion
3.58784 °/min
Orbital period
100.34 mins
BSTAR
0.000053867
Loading maneuver chart data...
Loading SW <> Apogee altitude chart data...
Loading historical data...
Loading historical data...
Loading historical data...
Loading historical data...
Loading historical data...
Loading historical data...
Loading historical data...

IRIDIUM 105 Visibility forecast

Observer location: undefined°, undefined°

Span
Click to sort rows by Start time (UTC) header in descending order
Start Az.
Max El. time (UTC)
Max El. Az.
Max El.
End time (UTC)
End Az.
5 mins2025-07-02 12:18:24.027Z42.051° NE2025-07-02 12:21:24.027Z81.418° E16.562°2025-07-02 12:23:24.027Z107.175° ESE
8 mins2025-07-02 13:58:24.027Z341.693° N2025-07-02 14:02:24.027Z257.282° W37.465°2025-07-02 14:06:24.027Z199.895° SSW
7 mins2025-07-03 01:14:24.027Z139.893° SSE2025-07-03 01:17:24.027Z87.208° E30.562°2025-07-03 01:21:24.027Z24.162° NE
7 mins2025-07-03 02:55:24.027Z239.097° WSW2025-07-03 02:58:24.027Z284.095° WNW22.187°2025-07-03 03:02:24.027Z335.117° NNW
|